Regional Weather Roundup
Issued by NWS

Home | Current Version | Previous Version | Graphics & Text | Print | Product List | Glossary On
Versions: 1 2 3 4 5 6 7 8 9 10 11 12 13 14 15 16 17 18 19 20 21 22 23 24 25 26 27 28 29 30 31 32 33 34 35 36 37 38 39 40 41 42 43 44 45 46 47 48 49 50
000
ASUS45 KBOU 010610
RWRCO

WEATHER ROUNDUP FOR COLORADO
NATIONAL WEATHER SERVICE DENVER/BOULDER CO
1200 AM MDT SAT AUG 01 2015

NOTE: "FAIR" INDICATES FEW OR NO CLOUDS BELOW 12000 FEET WITH NO
SIGNIFICANT WEATHER AND/OR OBSTRUCTIONS TO VISIBILITY.

COZ001>005-013-030-031-010700-
...NORTHWEST COLORADO...

CITY           SKY/WX    TMP DP  RH WIND       PRES   REMARKS
CRAIG          PTCLDY    54  32  43 SE3       30.25S
HAYDEN         CLEAR     63  30  29 E5        30.28R
MEEKER         CLEAR     59  34  39 E6        30.29R
MOUNT WERNER   NOT AVBL
STEAMBOAT SPGS CLEAR     57  39  50 CALM      30.31S
WALDEN         CLEAR     55  37  50 CALM      30.42R
$$

COZ006>008-011-010700-
...WEST CENTRAL VALLEYS...

CITY           SKY/WX    TMP DP  RH WIND       PRES   REMARKS
GRAND JUNCTION PTCLDY    77  45  32 E13       30.15S
MONTROSE       MOCLDY    72  49  44 SE13      30.28R
EAGLE          PTCLDY    66  41  39 E6        30.32R
RIFLE          CLEAR     71  43  36 CALM      30.22R
DELTA          MOCLDY    71  48  45 CALM      30.23S
NUCLA          MOCLDY    70  46  43 E6        30.32S
$$

COZ017>023-064>068-010700-
...SOUTHWEST COLORADO...

CITY           SKY/WX    TMP DP  RH WIND       PRES   REMARKS
DURANGO        CLOUDY    63  54  72 N3        30.38F
CORTEZ         CLOUDY    63  60  90 SE3       30.31S
PAGOSA SPRINGS CLOUDY    61  52  71 N3        30.46F
TELLURIDE      CLOUDY    56  51  81 SE5       30.56S
WOLF CREEK PAS NOT AVBL
$$

COZ009-010-012-014-032>034-037-058>063-010700-
...CENTRAL COLORADO...

CITY           SKY/WX    TMP DP  RH WIND       PRES   REMARKS
ASPEN          PTCLDY    60  43  53 SW9       30.41R
BUENA VISTA    PTCLDY    55  47  73 NW3       30.50S
COPPER MTN     PTCLDY    54  39  58 S21       30.75S
BERTHOUD PASS  FAIR      45  34  65 SW7       30.79S
COTTONWOOD PAS PTCLDY    57  45  62 CALM      30.62S
GUNNISON       MOCLDY    57  46  67 N8        30.48S
KREMMLING      PTCLDY    61  43  51 CALM      30.39R
LEADVILLE      CLOUDY    49  44  83 NE6       30.60S
MONARCH PASS   MOCLDY    48  37  66 S6        30.87R
SALIDA         NOT AVBL
SUNLIGHT       PTCLDY    57  37  47 CALM      30.67S
WILKERSON PASS PTCLDY    46  43  87 SW5       30.74S
$$

COZ069>075-010700-
...SAN LUIS VALLEY/SANGRE DE CRISTO MOUNTAINS...

CITY           SKY/WX    TMP DP  RH WIND       PRES   REMARKS
ALAMOSA        CLOUDY    59  52  77 VRB5      30.45S
LA VETA PASS   CLOUDY    52  46  82 MISG      30.63F
SAGUACHE       MOCLDY    54  50  87 N6        30.49S
$$

COZ035-036-038>040-010700-
...NORTHERN COLORADO FRONT RANGE...

CITY           SKY/WX    TMP DP  RH WIND       PRES   REMARKS
DENVER INTL AP PTCLDY    68  52  56 S15       30.24F
DMNS CITY PARK   N/A     72  51  48 SE15      30.24S
AURORA         PTCLDY    68  52  56 S12       30.27F
FRONT RANGE AP NOT AVBL
ERIE MUNI ARPT CLEAR     69  52  54 SW3       30.22S
BOULDER MUN AP CLEAR     70  50  49 CALM      30.22S
CENTENNIAL     PTCLDY    67  51  56 S9        30.29F
BROOMFIELD     CLEAR     70  54  56 S5        30.26F
FORT COLLINS   CLEAR     70  52  52 SE7       30.22S
LONGMONT       CLEAR     65  53  64 W3        30.23S
$$

COZ041-046-047-076>085-087-088-010700-
...PIKES PEAK/PALMER DIVIDE AND SOUTHERN FOOTHILLS...

CITY           SKY/WX    TMP DP  RH WIND       PRES   REMARKS
COLO. SPRINGS  PTCLDY    65  52  62 CALM      30.35F
A. F. ACADEMY  PTCLDY    58  50  75 NW5       30.36F
ELLICOTT       PTCLDY   N/A N/A N/A CALM      30.34F
FALCON         MOCLDY    63  50  63 SW5       30.40S
FORT CARSON    PTCLDY    67  52  57 W5        30.31S
LIMON          CLEAR     60  54  80 SE3       30.30S
MONUMENT HILL  PTCLDY    59  50  72 S9        30.39S
TRINIDAD       CLOUDY    68  54  60 W6        30.30F
$$

COZ042>045-048>051-090-091-010700-
...NORTHEAST COLORADO...

CITY           SKY/WX    TMP DP  RH WIND       PRES   REMARKS
GREELEY ARPT   CLEAR     68  52  56 S5        30.21S
AKRON          CLEAR     70  54  56 S14       30.22F
BURLINGTON     CLEAR     66  57  72 S9        30.23S
WRAY           CLEAR     73  57  57 SW6       30.18S
STERLING       CLEAR     66  55  68 S6        30.17S
HOLYOKE        NOT AVBL
FORT MORGAN    CLEAR     68  52  56 S6        30.22S
$$

COZ086-089-092>099-010700-
...SOUTHEAST COLORADO...

CITY           SKY/WX    TMP DP  RH WIND       PRES   REMARKS
PUEBLO         MOCLDY    73  56  54 CALM      30.25S
LA JUNTA       MOCLDY    72  62  71 E7        30.20F
LAMAR          PTCLDY    68  60  75 NE6       30.18S
SPRINGFIELD      N/A     67  65  93 S10       30.24S
$$


USA.gov is the U.S. government's official web portal to all federal, state and local government web resources and services.